Regional Weather Roundup
Issued by NWS Midland/Odessa, TX

Home | Current Version | Previous Version | Text Only | Print | Product List | Glossary On
Versions: 1 2 3 4 5 6 7 8 9 10 11 12 13 14 15 16 17 18 19 20 21 22 23 24 25 26 27 28 29 30 31 32 33 34 35 36 37 38 39 40 41 42 43 44 45 46 47 48 49 50
000
ASUS44 KMAF 210710
RWRMAF
MIDLAND AREA WEATHER ROUNDUP
NATIONAL WEATHER SERVICE MIDLAND TX
200 AM CDT SAT OCT 21 2017

...IN SOUTHWEST TEXAS AND SOUTHEAST NEW MEXICO...

CITY           SKY/WX    TMP DP  RH WIND       PRES   REMARKS
ALPINE         PTCLDY    64  51  60 SW3       30.01F
ANDREWS        FAIR      62  62 100 S14G21    29.86F
ARTESIA        CLEAR     55  55 100 MISG      29.81S
BIG SPRING     PTCLDY    65  61  88 S15G21    29.88F
CARLSBAD       CLEAR     61  59  93 S14       29.80F
DRYDEN           N/A     64  61  90 NE7       29.88F
FORT STOCKTON  CLEAR     64  61  90 S21G29    29.86F
GUAD PASS      CLEAR     63  44  50 SW21      29.95F
HOBBS          CLOUDY    61  59  94 SW17G24   29.84F
LAMESA         FAIR      63  59  88 S15       29.85F
MARFA          CLOUDY    53  44  71 N6        30.00F
MIDLAND AIRPK  CLEAR     66  61  82 S15G23    29.86F
MIDLAND INTL   CLEAR     66  61  84 S17       29.86F
ODESSA         NOT AVBL
PECOS          CLEAR     61  57  87 E6        29.81F
PRESIDIO       FAIR      72  50  46 N7        29.88S
SEMINOLE       CLEAR     61  60  96 S13       29.85F
SNYDER         CLEAR     64  60  86 S13       29.86F
WINK           CLEAR     63  61  93 SE15      29.82F
$$
...OTHER STATIONS IN TEXAS...

CITY           SKY/WX    TMP DP  RH WIND       PRES   REMARKS
ABILENE        CLEAR     67  62  84 S18G25    29.87F
AMARILLO       CLEAR     62  57  83 S24G33    29.78S
AUSTIN         CLOUDY    72  71  97 S6        29.92F
BROWNSVILLE    PTCLDY    73  71  93 CALM      29.91S
CORPUS CHRISTI PTCLDY    71  70  96 SE8       29.90F
DALLAS FTW     CLOUDY    74  68  81 S15       29.90S
DEL RIO        CLOUDY    68  66  93 SE5       29.88S
EL PASO        PTCLDY    74  39  28 SW14      29.86F
HOUSTON INT    MOCLDY    72  72 100 E6        29.94F
LUBBOCK        PTCLDY    62  59  90 S24G30    29.82S
SAN ANGELO     CLEAR     65  60  84 S7        29.90F
SAN ANTONIO    MOCLDY    71  67  87 SE7       29.93F
WACO           CLOUDY    74  69  85 S16       29.92S
WICHITA FALLS  MOCLDY    68  63  84 S25G31    29.76S
$$
...OTHER LOCATIONS IN NEW MEXICO...

CITY           SKY/WX    TMP DP  RH WIND       PRES   REMARKS
ALAMOGORDO     CLEAR     68  39  34 S13       29.88R
ALBUQUERQUE    CLOUDY    56  32  40 S3        29.88R
CANNON AFB     CLEAR     59  59 100 S13       29.81F
CLOVIS         CLEAR     58  55  90 S16G23    29.81F
HOLLOMAN AFB   CLEAR     63  41  45 S13       29.87R
ROSWELL        CLEAR     59  56  89 S13       29.80F
RUIDOSO        CLEAR     57  34  41 W21       29.97R
SANTA FE       CLEAR     54  33  45 W15       29.88R
TRUTH OR CONSE PTCLDY    62  38  40 SW5       29.87R
TUCUMCARI      CLEAR     62  44  51 S23       29.72S
$$




USA.gov is the U.S. government's official web portal to all federal, state and local government web resources and services.